ROMMA est une association bénévole à but non lucratif. Votre soutien est indispensable : ADHERER à ROMMA ou FAIRE un DON

Chambon - (38, Isère)

Oisans (2460 m)   Longitude: 06° 10' 42" E   Latitude: 45° 01' 32" N Station partenaire n°803
 

Détail journalier du     <<     >>

Température Humidité Vent Dir Rafale Dir. rafale Neige 1 Neige 2
Heure (°C) (%) (km/h) (km/h) (cm) (cm)
01:00 10.56627SSO56SSO30
02:00 11.26425SSO49SSO20
03:00 10.86428SSO67SSO40
04:00 10.56325SSO58SSO40
05:00 10.86019SSO41SSO30
06:00 8.88411SSO32SSO61
07:00 8.6835S25SO30
08:00 8.0923SE30S30
09:00 8.1888SE41SSO30
10:00 9.18312SSE46S20
11:00 11.16914S54SO21
12:00 11.17113SO64SO10
13:00 9.8839SSO53SSO21
14:00 9.9816SO51SO31
15:00 9.78015SSO55SSO40
16:00 9.18114S46S40
17:00 6.69816SSO46SSO11
18:00 7.68818SO43SO30
19:00 7.29111S41S30
20:00 6.1996S25S10
21:00 5.21006OSO15O022
22:00 5.41005SSO11SSO123
23:00 5.41005SSE10S123
minuit 5.31003SSE8SSE124

Graphique du 20-08-2019

 

Serveur OMMA